Date,TemperatureHighF,TemperatureAvgF,TemperatureLowF,DewpointHighF,DewpointAvgF,DewpointLowF,HumidityHigh,HumidityAvg,HumidityLow,PressureMaxIn,PressureMinIn,WindSpeedMaxMPH,WindSpeedAvgMPH,GustSpeedMaxMPH,PrecipitationSumIn
2014-1-1,77.2,44.3,21.0,20.0,9.2,-3.6,66,36,11,30.06,29.99,17,3,19,0.00
2014-1-2,78.1,45.3,23.4,25.1,13.6,2.9,68,40,10,30.07,29.95,15,3,15,0.00
2014-1-3,87.6,51.5,23.0,28.5,18.7,6.2,75,41,10,29.98,29.82,10,2,11,0.00
2014-1-4,81.1,55.6,33.3,28.3,18.4,4.8,59,32,10,29.97,29.82,11,3,14,0.00
2014-1-5,73.6,44.7,25.7,28.6,8.7,-13.0,72,35,10,30.10,29.97,18,4,19,0.00
2014-1-6,68.4,43.6,23.2,8.3,-4.5,-12.1,45,22,10,30.17,30.06,21,5,21,0.00
2014-1-7,83.1,46.5,16.9,17.8,3.2,-4.1,54,28,10,30.06,29.93,11,2,15,0.00
2014-1-8,82.0,49.2,28.6,21.3,11.1,-5.3,60,32,10,29.98,29.89,11,3,13,0.00
2014-1-9,87.1,43.9,28.0,39.9,25.9,10.3,84,59,10,29.96,29.83,15,2,15,0.00
2014-1-10,30.4,27.0,24.8,26.1,23.3,21.5,88,86,82,29.98,29.95,2,1,4,0.00
2014-1-13,73.2,60.3,35.2,13.4,9.6,1.8,34,15,10,30.22,30.19,20,7,20,0.00
2014-1-14,76.3,54.6,27.7,17.4,11.8,2.1,47,23,10,30.24,30.15,27,7,27,0.00
2014-1-15,78.1,57.7,29.8,17.1,9.5,3.2,45,17,10,30.20,30.09,18,8,23,0.00
2014-1-16,79.2,47.9,23.5,23.9,10.5,-4.1,60,29,10,30.11,30.01,18,4,21,0.00
2014-1-17,79.3,50.4,28.8,18.1,7.7,-0.6,36,20,10,30.09,30.00,15,4,19,0.00
2014-1-18,80.6,46.8,21.2,19.1,6.9,-6.1,48,24,10,30.05,29.97,17,3,17,0.00
2014-1-19,77.7,46.3,27.1,16.9,7.2,-5.1,43,23,10,30.08,29.97,11,2,14,0.00
2014-1-20,79.9,46.4,21.7,18.5,7.7,-1.2,47,25,10,30.14,30.02,12,3,17,0.00
2014-1-21,77.5,49.4,25.2,16.7,9.2,2.7,42,23,10,30.12,30.00,17,3,19,0.00
2014-1-22,91.0,55.5,31.3,27.0,17.5,9.6,47,27,10,30.00,29.81,11,2,12,0.00
2014-1-23,77.4,48.3,23.9,18.2,13.4,4.9,60,31,10,30.04,29.84,12,3,17,0.00
2014-1-24,62.4,54.4,45.0,36.5,17.1,10.1,58,25,13,30.16,30.04,16,6,17,0.00
2014-1-25,79.3,55.8,35.2,37.8,23.2,10.4,65,35,10,30.11,30.00,12,3,14,0.00
2014-1-26,80.8,52.3,31.6,50.0,38.2,17.0,88,61,29,30.04,29.89,13,4,18,0.00
2014-1-27,83.7,58.0,38.5,52.9,47.2,36.6,99,72,31,29.97,29.87,11,3,14,0.00
2014-1-28,87.3,52.0,28.4,48.0,26.0,10.7,99,52,10,30.03,29.92,14,2,16,0.00
2014-1-29,91.6,54.9,29.3,27.9,21.6,14.9,60,34,10,30.02,29.85,11,2,14,0.00
2014-1-30,76.5,54.0,37.6,48.9,32.9,20.1,98,51,12,29.88,29.72,28,10,32,0.00
2014-1-31,55.4,48.9,42.1,49.3,44.4,39.4,98,85,63,29.83,29.70,27,12,29,0.04